Temp
66 65 66 69 76 56 67 69 60 64 75 69 60 61 62 62 58 53 65 62 67 74 76 81 82 81 83 86 87 87 87 88 86 85 87 87 88 88 87 87 86 85 86 85 86 85 86 86 86 85 84 84 83 83 83 82 82 83 82 82 82 82 82
66 68 68 69 71 74 70 60 67 75 78 73 63 53 57 54 50 54 62 59 62 63 59 79 78 77 81 83 84 87 87 88 85 86 86 87 88 88 88 87 87 87 86 86 87 88 88 87 87 86 84 85 85 85 85 83 82 81 83 83 83 83 82
64 68 70 69 74 76 70 68 80 65 55 54 62 58 48 48 48 52 58 62 63 66 65 73 75 76 79 81 83 85 86 87 86 87 87 87 89 89 88 88 87 87 87 87 86 88 89 88 87 87 86 87 87 86 87 87 84 85 85 86 85 84 84
61 65 67 57 65 74 76 77 72 76 70 61 56 58 59 58 51 51 53 59 57 69 71 76 76 79 81 83 81 82 86 86 86 87 88 88 87 87 88 88 88 88 88 89 89 89 89 89 88 89 88 89 88 88 87 87 87 86 85 85 84 84 85
61 56 63 62 66 64 65 65 65 69 67 73 70 67 61 56 52 53 53 51 60 71 78 78 79 81 83 84 82 81 84 87 89 88 88 88 87 87 88 89 89 89 89 90 90 90 91 91 90 90 90 89 89 89 88 88 86 87 86 86 86 84 85
55 60 66 63 61 61 61 63 64 67 63 59 54 52 67 63 57 50 52 51 63 76 80 81 82 84 85 87 86 85 86 89 88 88 89 88 87 88 89 90 91 90 89 90 91 90 90 91 90 90 90 90 90 89 89 89 89 88 88 87 85 84 85
53 60 64 66 64 62 62 63 61 67 68 68 60 49 56 63 63 66 62 56 60 78 81 79 83 86 88 88 88 88 89 90 90 89 91 89 88 89 90 90 91 91 90 90 90 89 88 88 88 89 90 90 89 89 90 89 89 88 89 89 88 85 85
57 61 64 63 63 63 58 59 63 64 61 64 63 63 65 60 62 58 58 53 62 77 81 82 83 83 85 85 86 87 92 92 90 88 89 88 87 87 90 91 92 91 91 90 88 86 86 86 86 88 89 89 90 90 90 90 89 89 90 90 89 86 85
50 56 60 60 62 63 59 58 59 59 60 61 62 63 63 58 62 62 58 50 61 76 77 81 83 83 82 84 86 85 84 86 88 89 88 88 86 86 88 89 89 89 90 87 85 85 84 85 88 88 88 88 90 89 90 90 90 91 90 90 89 87 87
37 38 41 46 51 54 56 56 55 57 57 57 59 57 60 52 60 63 59 59 69 76 75 77 81 82 79 82 85 86 86 84 85 86 86 85 86 84 86 87 88 88 87 86 85 84 84 87 88 86 86 88 90 89 89 91 90 90 90 90 89 88 88
43 45 40 44 49 51 51 54 55 55 56 58 56 56 56 55 60 59 63 66 68 71 76 77 81 80 82 85 84 84 85 85 84 82 84 86 84 84 86 86 87 86 85 85 84 84 87 89 89 88 88 88 89 87 88 90 91 90 89 89 87 88 88
46 49 48 50 51 47 51 51 53 56 55 55 54 54 57 57 59 55 64 66 66 70 75 75 75 77 78 79 79 81 80 79 80 82 81 82 86 87 86 86 85 84 84 84 84 84 86 88 89 89 89 89 88 87 88 89 91 91 90 88 87 86 86
49 51 50 51 49 50 50 52 52 52 55 55 53 54 57 57 56 57 63 66 64 69 71 70 72 71 71 74 75 75 75 78 80 79 80 83 86 87 87 84 83 84 84 83 84 85 86 88 87 88 89 89 88 87 88 89 91 90 88 87 86 86 85
47 49 50 50 49 50 51 51 53 55 55 56 57 57 60 60 56 59 62 63 64 65 66 69 71 71 71 72 73 75 75 75 74 76 78 82 85 88 88 86 86 84 85 84 83 84 84 86 86 88 87 87 88 87 88 89 88 90 88 86 85 85 85
44 49 51 52 52 51 48 52 54 56 57 59 58 59 59 59 59 62 63 62 62 67 68 68 71 71 74 73 73 73 72 73 74 74 77 79 82 85 88 86 86 85 85 85 84 83 83 85 85 86 86 87 88 90 89 90 88 89 89 85 86 86 84
40 48 49 51 52 52 50 50 54 55 56 53 53 51 53 52 53 56 59 59 62 63 67 69 71 71 70 70 70 71 71 72 72 73 75 76 78 82 85 88 88 86 86 85 84 84 86 87 86 87 85 88 89 89 89 89 90 91 89 87 86 84 86
38 48 48 48 48 48 46 48 53 55 54 55 55 54 54 52 54 55 58 61 58 60 64 65 68 70 69 69 68 68 69 69 71 72 73 76 78 80 82 84 86 88 88 87 85 87 88 88 88 89 88 89 87 88 88 89 89 90 89 89 86 84 85
39 45 46 48 44 36 42 58 61 59 54 54 50 48 50 52 53 51 54 54 58 59 60 62 65 67 67 67 68 70 68 68 69 71 74 76 78 80 85 87 89 88 87 88 88 88 87 89 91 91 90 89 89 90 90 89 89 87 86 87 86 84 84
36 43 44 41 34 41 51 56 58 60 58 57 53 51 51 51 52 52 53 53 55 57 59 63 65 68 70 71 70 70 71 70 69 69 73 75 77 78 82 85 89 87 86 87 87 87 89 90 90 90 90 91 90 90 89 88 88 85 85 85 84 84 83
39 38 39 29 39 50 53 54 54 58 59 58 56 50 50 52 51 52 50 52 54 56 60 64 67 68 72 74 72 70 70 70 69 70 72 76 77 78 82 86 86 85 88 87 88 87 89 90 91 91 90 91 91 90 91 89 88 86 85 84 84 84 83
30 37 40 41 45 45 50 49 47 49 47 49 50 43 45 51 53 51 49 51 53 55 59 63 67 71 73 72 71 71 69 68 69 71 72 76 79 80 82 88 88 87 88 88 90 88 89 91 90 91 92 92 91 91 90 89 86 87 86 84 84 83 83
39 36 36 38 37 33 40 46 51 54 53 53 54 51 46 52 53 53 50 50 51 53 57 60 63 70 70 64 63 67 67 67 66 71 74 77 80 81 83 87 87 86 87 89 88 90 89 90 91 91 92 91 89 87 88 88 87 86 85 85 85 84 84
36 36 32 34 33 36 39 43 49 53 55 54 55 51 43 49 50 50 50 50 52 52 53 57 60 64 59 55 57 62 62 62 63 67 72 75 78 81 82 84 87 88 86 87 89 89 88 89 90 90 90 90 88 86 87 87 86 86 85 85 86 85 85
36 37 35 33 35 33 41 46 50 54 56 54 52 43 40 46 49 49 49 49 50 51 53 56 56 51 48 48 52 59 60 61 62 69 70 72 75 78 81 84 86 86 85 85 86 87 88 87 89 89 90 88 87 86 86 88 87 86 86 86 87 87 87
37 36 36 38 38 44 46 47 50 54 54 51 44 38 39 47 48 49 48 48 49 50 52 53 50 53 53 54 56 59 61 60 64 70 72 73 75 76 79 79 80 85 86 87 88 89 88 86 89 90 88 88 86 85 85 85 86 88 88 88 87 87 86
34 36 34 36 38 42 46 49 50 51 47 39 36 42 48 48 46 48 48 48 49 49 51 52 52 53 56 57 58 58 58 59 63 68 70 72 74 78 79 78 79 82 86 86 88 90 86 87 88 88 87 85 84 84 85 85 86 90 89 88 87 86 86
40 37 34 34 29 40 48 46 48 48 42 38 45 46 48 49 47 47 47 48 48 49 49 53 53 54 55 55 56 56 57 59 62 65 67 68 70 72 75 78 80 81 81 82 85 86 88 89 89 89 89 84 84 84 83 85 88 89 88 88 87 86 86
33 35 32 30 36 41 47 45 36 42 44 47 48 47 44 48 48 46 46 48 49 50 50 51 52 54 54 54 55 56 58 59 61 64 66 68 70 71 74 77 78 81 79 79 80 83 87 88 88 88 87 83 83 83 83 86 88 88 88 87 86 86 85
34 33 35 39 43 45 47 47 46 46 49 49 48 47 47 45 45 49 47 48 50 50 51 51 51 52 53 53 55 54 55 57 60 61 63 65 67 69 70 73 76 79 79 78 79 80 82 83 85 86 86 84 83 82 83 84 85 86 86 86 85 85 85
43 44 42 44 44 44 46 50 50 48 50 51 50 48 46 47 48 49 47 48 49 50 51 50 51 52 53 54 55 56 57 58 60 61 62 64 66 68 69 71 73 75 79 79 79 78 78 81 82 83 85 85 82 81 82 83 85 85 85 84 84 84 85
38 33 42 41 41 45 48 47 49 51 50 50 50 48 47 48 48 49 50 50 50 50 51 51 51 52 54 55 55 56 57 58 59 60 60 62 64 65 66 69 71 72 74 75 76 77 76 78 80 82 82 82 81 81 81 83 84 84 84 84 83 84 84
37 36 42 43 45 46 49 46 45 47 48 50 50 49 50 50 50 49 50 52 51 51 50 52 52 53 56 56 54 55 56 57 58 59 60 61 63 65 66 68 71 72 72 72 72 74 75 76 77 78 79 79 80 81 82 83 84 83 83 84 84 84 84
42 45 45 44 45 48 49 48 49 49 49 48 48 49 49 50 49 50 52 53 52 52 51 52 52 53 55 57 56 56 56 57 58 59 60 61 61 63 65 67 69 70 72 73 74 74 75 76 77 77 77 78 79 80 81 82 83 83 81 81 82 84 85
36 35 38 41 35 36 42 45 48 49 51 50 48 48 48 50 50 50 50 51 53 53 53 53 52 52 54 57 57 55 56 57 58 59 61 62 61 61 64 66 68 70 71 72 74 74 75 76 76 77 77 78 78 80 81 82 83 82 81 80 80 80 83
33 40 42 43 42 41 43 46 50 51 51 50 48 47 47 49 52 52 50 49 50 51 53 55 53 53 54 55 57 56 56 57 59 60 61 62 62 62 63 65 65 66 69 71 73 74 75 76 77 77 77 78 78 80 80 80 80 81 81 80 81 81 81
43 45 44 45 43 41 44 48 50 50 51 50 49 49 49 50 51 53 51 50 49 50 52 54 54 54 54 56 57 55 56 58 59 60 62 63 63 64 63 64 64 65 66 68 70 71 74 75 77 77 79 79 77 81 80 80 80 80 81 82 81 82 83
40 46 46 46 46 47 48 49 50 51 52 51 49 48 49 49 51 53 51 51 52 52 51 52 55 56 55 56 56 56 56 57 60 62 62 62 64 64 64 64 63 64 65 67 69 72 74 75 76 77 77 77 78 79 79 80 81 80 79 82 84 83 81
MSLP
1008.59 1008.79 1008.63 1007.79 1006.43 1011.59 1008.07 1008.83 1010.47 1008.95 1007.27 1009.07 1011.19 1011.15 1010.67 1010.95 1011.99 1011.91 1009.03 1009.99 1007.91 1006.23 1004.99 1003.95 1003.67 1004.19 1003.59 1002.87 1002.83 1002.83 1002.83 1002.99 1003.51 1003.99 1003.91 1003.91 1003.91 1003.99 1004.27 1004.63 1004.83 1005.19 1005.55 1005.99 1006.23 1006.59 1007.03 1007.47 1007.91 1008.07 1008.27 1008.51 1009.03 1009.75 1010.39 1011.07 1011.55 1011.87 1012.31 1012.63 1012.99 1013.31 1013.63
1008.47 1008.07 1008.19 1008.03 1007.31 1006.59 1007.71 1010.03 1007.99 1006.91 1006.55 1007.63 1010.31 1013.03 1011.71 1012.83 1013.43 1011.15 1009.67 1010.15 1009.03 1009.39 1009.27 1003.35 1004.27 1004.91 1003.91 1003.27 1002.99 1002.55 1002.27 1002.39 1003.35 1003.31 1003.31 1003.27 1003.27 1003.19 1003.19 1003.35 1003.63 1004.07 1004.55 1004.99 1005.35 1005.71 1006.07 1006.39 1006.63 1007.27 1007.83 1007.99 1008.55 1009.03 1009.63 1010.51 1011.07 1011.59 1011.79 1012.15 1012.55 1012.83 1013.27
1008.67 1007.91 1007.55 1007.55 1006.43 1005.99 1007.31 1007.51 1004.75 1009.03 1011.99 1012.43 1009.83 1011.43 1013.79 1013.55 1013.19 1011.71 1010.19 1008.99 1008.15 1007.23 1007.15 1005.03 1004.67 1004.67 1003.99 1003.47 1002.87 1002.63 1002.55 1002.51 1002.55 1002.55 1002.55 1002.47 1002.35 1002.59 1003.07 1003.27 1003.59 1003.91 1004.23 1004.59 1004.95 1005.19 1005.27 1005.59 1006.23 1006.75 1007.23 1007.75 1008.23 1008.67 1009.07 1009.55 1010.19 1010.47 1010.99 1011.43 1011.91 1012.31 1012.67
1009.23 1008.47 1007.95 1009.63 1007.87 1006.15 1005.75 1005.43 1006.75 1005.71 1007.47 1009.31 1011.03 1009.99 1009.43 1010.31 1011.79 1012.19 1010.75 1009.75 1009.47 1005.71 1005.11 1004.23 1004.19 1003.35 1002.95 1002.63 1002.91 1002.79 1002.03 1001.99 1002.03 1001.95 1001.87 1002.11 1002.43 1002.51 1002.55 1002.67 1002.91 1003.15 1003.35 1003.63 1003.99 1004.43 1004.91 1005.35 1005.87 1006.23 1006.79 1007.27 1007.79 1008.07 1008.63 1009.11 1009.55 1010.11 1010.67 1011.07 1011.43 1011.95 1012.15
1009.51 1009.67 1007.99 1008.27 1007.27 1007.79 1007.83 1008.15 1008.11 1007.07 1007.27 1005.71 1006.83 1007.59 1009.03 1010.15 1010.91 1010.75 1010.71 1011.19 1007.99 1004.83 1002.99 1003.35 1003.03 1002.51 1002.03 1001.67 1002.07 1002.11 1001.79 1001.23 1000.99 1001.07 1001.19 1001.39 1001.59 1001.79 1001.79 1001.83 1002.15 1002.39 1002.67 1002.91 1003.23 1003.55 1003.99 1004.59 1005.27 1005.91 1006.43 1006.83 1007.23 1007.79 1008.31 1008.63 1009.23 1009.63 1010.11 1010.43 1010.87 1011.27 1011.59
1009.99 1008.15 1007.23 1007.99 1008.67 1008.91 1008.99 1008.35 1007.83 1006.79 1008.11 1009.35 1010.83 1010.63 1007.07 1007.75 1009.43 1010.55 1010.87 1010.59 1006.63 1003.15 1001.79 1001.83 1001.67 1001.11 1000.99 1000.55 1000.51 1000.83 1000.71 1000.47 1000.39 1000.43 1000.51 1000.59 1000.99 1000.95 1000.95 1001.07 1001.23 1001.55 1001.91 1002.19 1002.47 1002.99 1003.67 1004.43 1004.99 1005.39 1005.63 1006.23 1006.87 1007.19 1007.39 1007.95 1008.55 1009.07 1009.47 1009.99 1010.35 1010.75 1011.15
1010.47 1008.51 1007.79 1007.71 1008.27 1008.79 1008.83 1008.75 1008.63 1006.95 1006.43 1006.39 1008.63 1010.99 1008.51 1007.59 1007.11 1006.91 1007.63 1009.27 1006.75 1002.15 1001.35 1001.87 1001.19 1000.23 999.87 999.71 999.79 999.99 999.67 999.51 999.55 999.75 999.67 999.75 999.91 1000.15 1000.23 1000.39 1000.55 1000.83 1001.19 1001.55 1002.07 1002.75 1003.23 1003.67 1004.03 1004.39 1005.11 1005.59 1005.91 1006.31 1006.83 1007.31 1007.83 1008.23 1008.51 1009.03 1009.55 1010.15 1010.71
1010.03 1008.75 1007.75 1008.15 1008.15 1008.27 1009.43 1009.39 1008.51 1008.15 1008.39 1007.35 1007.35 1006.95 1005.95 1007.47 1007.07 1008.59 1008.59 1009.71 1006.47 1002.23 1000.99 1000.87 1000.79 1000.75 1000.43 1000.27 1000.03 999.71 998.71 998.71 998.95 999.31 999.39 999.59 999.95 999.91 999.79 999.79 999.99 1000.31 1000.71 1001.31 1002.07 1002.83 1003.15 1003.47 1003.87 1004.31 1004.59 1004.91 1005.35 1005.83 1006.19 1006.63 1007.23 1007.63 1008.11 1008.55 1009.03 1009.63 1010.19
1010.19 1008.87 1008.03 1008.47 1008.15 1007.75 1008.79 1009.03 1009.11 1009.35 1008.99 1008.55 1008.03 1007.51 1006.87 1007.75 1006.11 1006.67 1008.19 1009.71 1007.35 1002.59 1001.23 1000.79 1000.47 1000.59 1001.07 1000.55 1000.03 1000.19 1000.43 999.63 999.27 999.31 999.43 999.31 999.43 999.59 999.79 999.95 999.95 1000.19 1000.79 1001.51 1002.03 1002.35 1002.79 1003.19 1003.39 1003.71 1004.11 1004.55 1004.87 1005.23 1005.59 1006.03 1006.43 1006.87 1007.43 1007.87 1008.51 1009.07 1009.63
1012.35 1011.79 1010.75 1009.99 1009.39 1009.43 1009.59 1009.63 1009.83 1009.63 1009.55 1009.47 1008.43 1008.39 1007.39 1009.03 1006.03 1005.91 1006.95 1006.99 1004.47 1002.39 1001.99 1001.67 1000.91 1000.63 1001.07 1000.43 1000.03 999.83 999.83 1000.15 999.99 999.83 999.87 999.87 999.83 999.99 999.87 999.83 1000.07 1000.43 1000.47 1000.71 1001.31 1001.87 1002.31 1002.63 1002.95 1003.39 1003.71 1003.91 1004.23 1004.63 1004.91 1005.15 1005.91 1006.47 1006.91 1007.31 1007.87 1008.55 1009.11
1011.79 1011.43 1013.71 1013.59 1012.43 1011.07 1010.19 1009.31 1009.63 1009.71 1009.67 1009.51 1009.87 1009.39 1008.79 1007.87 1006.43 1006.59 1005.11 1005.23 1004.75 1003.83 1002.43 1001.95 1001.19 1001.11 1000.63 999.91 999.83 999.91 999.87 999.79 999.83 999.87 999.79 999.51 999.75 999.91 999.95 999.87 999.75 999.91 1000.47 1000.87 1001.03 1001.39 1001.63 1001.83 1002.15 1002.59 1003.11 1003.55 1003.87 1004.31 1004.67 1004.91 1005.23 1005.79 1006.31 1006.91 1007.51 1008.11 1008.63
1013.07 1011.95 1012.27 1011.99 1012.11 1012.11 1010.83 1010.75 1009.71 1009.15 1009.55 1009.63 1009.99 1009.47 1007.71 1007.95 1006.95 1007.63 1004.87 1004.39 1005.07 1003.91 1002.55 1002.55 1002.35 1001.71 1001.19 1000.99 1000.91 1000.75 1000.75 1000.87 1000.63 1000.19 1000.23 1000.15 999.75 999.39 999.51 999.95 1000.31 1000.55 1000.39 1000.43 1000.83 1001.15 1001.31 1001.55 1001.71 1002.03 1002.39 1002.75 1003.27 1003.75 1004.23 1004.51 1004.91 1005.47 1005.95 1006.55 1007.15 1007.71 1008.23
1012.39 1011.79 1011.83 1011.83 1011.99 1011.67 1011.23 1010.59 1010.07 1009.83 1009.15 1009.23 1009.67 1009.27 1008.67 1008.47 1008.07 1007.07 1005.47 1004.63 1005.47 1004.27 1003.83 1004.15 1003.51 1003.35 1003.31 1002.43 1002.19 1002.03 1001.63 1001.07 1000.51 1000.51 1000.43 1000.07 999.71 999.55 999.63 999.67 999.71 999.95 1000.19 1000.35 1000.59 1000.83 1000.91 1001.03 1001.47 1001.75 1002.11 1002.59 1003.07 1003.59 1003.91 1004.35 1004.67 1005.03 1005.35 1006.11 1006.79 1007.35 1007.91
1012.83 1011.83 1011.67 1011.75 1011.87 1011.19 1010.95 1010.39 1009.75 1009.19 1008.87 1008.63 1008.23 1008.15 1007.55 1007.51 1008.07 1007.43 1006.11 1005.59 1005.91 1005.55 1005.39 1004.51 1003.91 1003.63 1003.43 1003.07 1002.55 1002.03 1001.91 1001.87 1001.79 1001.27 1000.75 999.99 999.35 998.99 999.03 999.19 999.19 999.27 999.27 999.55 999.95 1000.23 1000.59 1000.83 1001.07 1001.39 1001.87 1002.31 1002.59 1003.03 1003.47 1003.75 1004.23 1004.51 1005.07 1005.75 1006.35 1006.95 1007.55
1012.75 1011.55 1011.11 1010.95 1010.71 1010.71 1010.87 1009.75 1009.15 1008.51 1008.07 1007.43 1007.39 1007.15 1007.15 1007.31 1007.43 1006.71 1006.35 1006.31 1006.39 1005.15 1004.91 1004.55 1003.79 1003.47 1002.99 1002.95 1002.99 1002.91 1002.63 1002.35 1002.15 1001.87 1001.23 1000.39 999.63 998.79 998.35 998.27 998.47 998.51 998.67 998.87 999.35 999.95 1000.35 1000.43 1000.55 1000.83 1001.11 1001.43 1001.83 1002.35 1002.87 1003.35 1003.83 1004.03 1004.55 1005.35 1005.91 1006.43 1006.95
1012.75 1010.99 1010.75 1010.23 1010.07 1010.07 1010.31 1009.75 1008.71 1008.27 1007.71 1008.23 1008.79 1009.19 1009.11 1008.99 1008.51 1007.87 1007.23 1006.91 1006.03 1006.03 1005.23 1004.55 1003.75 1003.55 1003.67 1003.71 1003.51 1003.27 1003.11 1002.75 1002.55 1002.19 1001.51 1000.79 999.95 998.99 998.23 997.71 997.59 997.99 998.31 998.67 999.11 999.39 999.55 999.75 1000.03 1000.39 1000.87 1001.19 1001.67 1002.11 1002.39 1002.83 1003.19 1003.55 1004.27 1004.83 1005.51 1006.03 1006.39
1012.87 1010.83 1011.11 1010.99 1011.15 1010.55 1010.23 1009.35 1008.47 1007.67 1008.03 1008.03 1008.35 1008.83 1009.07 1009.47 1008.91 1008.03 1006.91 1006.11 1007.75 1007.07 1006.11 1005.47 1004.55 1003.99 1003.83 1003.79 1003.71 1003.75 1003.39 1003.19 1002.67 1002.15 1001.47 1000.59 999.75 998.83 997.99 997.63 997.43 997.31 997.47 997.75 998.11 998.23 998.51 998.91 999.35 999.51 999.87 1000.63 1001.19 1001.31 1001.87 1002.11 1002.67 1003.35 1003.87 1004.39 1005.11 1005.83 1006.19
1012.31 1011.35 1011.43 1011.19 1011.15 1011.71 1008.91 1006.19 1006.47 1006.75 1007.91 1008.27 1009.15 1010.27 1010.15 1009.83 1009.47 1009.67 1009.07 1008.83 1007.87 1007.35 1006.71 1006.11 1005.35 1004.55 1004.27 1004.03 1003.59 1003.07 1003.27 1003.15 1002.67 1001.95 1001.11 1000.15 999.23 998.27 997.27 996.71 996.63 996.59 996.71 996.91 997.15 997.35 997.55 997.71 997.95 998.47 999.11 999.75 1000.27 1000.71 1001.35 1001.91 1002.51 1003.03 1003.71 1004.27 1004.87 1005.51 1005.91
1013.63 1011.99 1011.75 1011.35 1012.07 1009.15 1008.35 1007.63 1007.23 1006.79 1007.23 1007.43 1008.71 1009.87 1009.99 1009.75 1009.39 1009.23 1008.99 1008.71 1008.19 1007.67 1006.99 1005.91 1005.03 1004.07 1003.47 1002.99 1003.31 1003.23 1002.83 1002.71 1002.51 1002.07 1001.03 1000.07 999.23 998.55 997.31 996.59 996.07 996.07 996.35 996.67 996.95 997.39 997.63 997.99 998.51 999.03 999.71 1000.11 1000.63 1001.03 1001.31 1001.91 1002.39 1003.11 1003.59 1004.11 1004.71 1005.15 1005.67
1013.83 1013.11 1012.15 1012.71 1008.87 1008.03 1008.15 1008.07 1008.35 1007.55 1007.23 1007.39 1007.59 1009.35 1010.03 1009.83 1010.15 1010.11 1009.99 1009.47 1008.83 1007.91 1006.67 1005.39 1004.47 1003.91 1002.87 1002.31 1002.59 1002.91 1002.67 1002.43 1002.35 1001.87 1001.03 999.87 999.07 998.47 997.23 996.27 995.95 995.91 995.83 996.31 996.67 996.95 996.91 997.55 998.11 998.43 999.07 999.35 1000.03 1000.63 1000.87 1001.63 1002.23 1002.87 1003.39 1003.99 1004.43 1004.87 1005.43
1014.95 1012.19 1010.83 1009.95 1009.51 1009.91 1008.19 1008.63 1009.71 1009.87 1009.83 1009.27 1008.63 1009.91 1010.75 1010.23 1010.11 1010.27 1010.27 1009.67 1008.95 1008.03 1006.67 1005.51 1004.27 1003.19 1002.55 1002.75 1002.87 1002.51 1002.71 1002.59 1002.07 1001.59 1000.75 999.59 998.67 997.87 996.91 995.79 995.67 995.59 995.51 995.95 996.31 996.87 997.19 997.27 997.83 998.31 998.59 999.03 999.71 1000.39 1000.99 1001.47 1002.07 1002.67 1003.23 1003.91 1004.19 1004.47 1004.79
1013.75 1012.83 1012.07 1010.55 1010.55 1010.31 1009.87 1010.23 1009.75 1009.59 1009.59 1009.35 1008.75 1008.75 1010.03 1010.19 1010.15 1010.23 1010.23 1009.99 1009.39 1008.47 1007.11 1005.83 1004.75 1002.95 1003.03 1004.39 1004.27 1003.23 1003.11 1002.75 1002.47 1001.27 1000.31 999.27 998.27 997.39 996.63 995.55 995.39 995.51 995.59 995.87 996.23 996.71 997.31 997.63 997.75 998.03 998.43 998.95 999.55 1000.27 1000.87 1001.31 1001.91 1002.55 1003.03 1003.43 1003.59 1003.99 1004.35
1014.07 1012.83 1012.71 1010.75 1010.11 1010.11 1012.03 1010.99 1010.15 1009.51 1009.23 1009.31 1008.75 1008.43 1010.03 1010.67 1010.79 1010.79 1010.63 1010.03 1009.55 1009.15 1008.31 1007.07 1005.75 1004.11 1005.43 1006.35 1005.63 1004.59 1004.23 1003.47 1002.67 1001.75 1000.43 999.63 998.59 997.51 996.79 996.23 995.75 995.51 995.67 995.79 996.19 996.63 997.11 997.79 997.83 997.95 998.35 998.87 999.63 1000.35 1000.67 1001.07 1001.59 1002.23 1002.63 1002.87 1003.19 1003.55 1003.83
1013.99 1012.35 1011.79 1011.31 1011.19 1011.95 1011.39 1010.91 1010.03 1009.31 1008.99 1009.27 1008.83 1008.87 1010.11 1011.43 1011.39 1011.47 1011.19 1010.71 1010.19 1009.63 1008.99 1008.07 1007.51 1008.07 1008.67 1008.43 1007.27 1005.79 1004.99 1004.15 1002.95 1001.67 1000.75 999.95 998.99 997.95 997.03 996.39 995.83 995.55 995.63 996.07 996.51 996.87 997.23 997.43 997.39 997.83 998.27 998.91 999.55 1000.15 1000.51 1000.71 1001.39 1001.87 1002.03 1002.11 1002.23 1002.63 1003.15
1012.87 1012.99 1011.87 1011.03 1010.91 1010.91 1011.43 1010.87 1009.95 1009.07 1009.07 1009.15 1008.43 1008.95 1011.23 1011.99 1012.07 1011.87 1011.79 1011.39 1010.95 1010.39 1009.55 1008.99 1008.71 1008.75 1008.87 1008.51 1007.47 1006.27 1005.19 1004.15 1002.71 1001.35 1000.55 1000.03 999.27 998.51 997.83 997.43 996.63 996.27 995.99 995.87 996.07 996.19 996.51 996.87 997.23 997.67 998.23 998.95 999.71 1000.03 1000.31 1000.79 1001.11 1000.95 1001.03 1001.35 1001.83 1002.27 1002.71
1013.07 1012.11 1011.99 1010.91 1011.15 1012.35 1011.99 1010.71 1009.99 1009.47 1009.19 1008.99 1010.15 1012.11 1012.35 1012.43 1012.55 1012.15 1011.99 1011.75 1011.27 1011.07 1010.03 1009.55 1009.31 1008.87 1008.27 1007.79 1007.15 1006.43 1005.55 1004.59 1003.19 1001.75 1000.99 1000.31 999.59 998.63 998.03 997.71 997.35 996.95 996.47 996.43 996.23 996.23 996.51 996.79 997.07 997.51 998.07 998.95 999.43 999.83 1000.19 1000.47 1000.19 1000.03 1000.55 1001.03 1001.47 1002.07 1002.59
1011.63 1011.51 1011.51 1011.11 1011.43 1011.43 1012.15 1011.75 1009.67 1010.07 1009.47 1012.03 1012.43 1012.55 1012.35 1012.27 1012.55 1012.51 1012.19 1011.83 1011.55 1011.31 1010.71 1009.59 1009.23 1008.67 1008.15 1007.71 1007.07 1006.35 1005.63 1004.63 1003.43 1002.63 1001.87 1001.23 1000.59 999.95 999.11 998.47 997.91 997.59 997.47 997.23 996.99 996.83 996.75 996.75 996.99 997.39 997.95 998.87 999.31 999.59 999.95 999.75 999.55 999.87 1000.23 1000.71 1001.27 1001.83 1002.35
1012.07 1011.19 1011.59 1012.87 1013.87 1014.07 1012.95 1012.63 1013.07 1012.55 1012.47 1012.71 1012.71 1012.71 1012.91 1012.51 1012.43 1012.51 1012.31 1011.79 1011.59 1011.39 1011.03 1010.11 1009.15 1008.55 1008.19 1007.55 1006.95 1006.27 1005.35 1004.31 1003.51 1002.91 1002.19 1001.43 1000.75 1000.19 999.59 999.11 998.63 998.07 998.15 997.95 997.79 997.51 997.19 997.15 997.19 997.39 997.83 998.79 999.15 999.47 999.63 999.27 999.39 999.67 1000.07 1000.59 1001.11 1001.71 1002.15
1014.63 1013.43 1014.47 1015.23 1014.23 1013.75 1013.11 1012.87 1012.55 1012.83 1012.79 1012.91 1013.15 1013.15 1013.07 1013.19 1012.91 1012.47 1012.51 1012.03 1011.51 1011.31 1010.95 1010.23 1009.51 1008.71 1008.15 1007.87 1007.27 1006.91 1006.19 1005.27 1004.47 1003.87 1003.15 1002.35 1001.67 1001.03 1000.47 999.91 999.23 998.71 998.63 998.63 998.39 998.23 997.95 997.71 997.59 997.71 997.91 998.63 999.19 999.63 999.43 999.23 999.55 999.79 1000.15 1000.55 1001.11 1001.59 1001.87
1014.15 1014.27 1015.03 1014.47 1013.91 1013.67 1013.03 1012.35 1012.47 1012.75 1012.51 1012.51 1012.71 1012.99 1012.95 1012.83 1012.79 1012.59 1012.55 1012.15 1011.71 1011.23 1010.71 1010.43 1009.39 1008.95 1008.31 1007.79 1007.23 1006.83 1006.19 1005.43 1004.63 1003.87 1003.23 1002.55 1002.03 1001.39 1000.83 1000.31 999.87 999.47 998.99 998.87 998.87 999.03 998.83 998.47 998.31 998.23 998.31 998.59 999.51 999.71 999.55 999.55 999.55 999.79 1000.15 1000.67 1001.15 1001.43 1001.63
1013.79 1014.47 1014.11 1014.87 1014.63 1013.67 1012.39 1012.71 1012.75 1012.51 1012.71 1012.63 1012.59 1012.79 1012.87 1012.79 1012.67 1012.43 1012.23 1012.07 1011.75 1011.31 1010.79 1010.27 1009.87 1009.07 1008.23 1007.75 1007.47 1007.11 1006.51 1005.79 1005.19 1004.63 1004.07 1003.39 1002.87 1002.47 1001.83 1001.23 1000.55 1000.23 999.87 999.79 999.75 999.63 999.71 999.35 999.03 998.91 998.95 999.07 999.39 999.59 999.79 999.71 999.75 999.95 1000.35 1000.71 1001.11 1001.35 1001.59
1014.87 1014.95 1014.43 1014.51 1014.03 1013.39 1012.79 1013.11 1013.19 1012.95 1012.71 1012.35 1012.43 1012.67 1012.55 1012.47 1012.31 1012.27 1011.99 1011.63 1011.43 1011.19 1010.87 1010.27 1009.83 1008.99 1008.19 1007.95 1007.63 1007.19 1006.79 1006.31 1005.75 1005.31 1004.79 1004.19 1003.39 1002.71 1002.23 1001.63 1001.07 1000.67 1000.51 1000.51 1000.47 1000.31 1000.35 1000.11 999.83 999.75 999.75 999.87 999.79 999.71 999.75 999.71 999.79 1000.11 1000.51 1000.79 1001.03 1001.23 1001.35
1014.27 1013.79 1014.03 1014.35 1013.71 1012.55 1012.23 1012.71 1012.87 1012.79 1012.63 1012.59 1012.11 1012.07 1012.23 1011.99 1012.07 1011.79 1011.51 1011.39 1011.23 1010.99 1010.71 1010.31 1009.79 1009.07 1008.31 1008.03 1007.75 1007.39 1007.03 1006.59 1006.15 1005.75 1005.31 1004.71 1004.27 1003.51 1002.83 1002.23 1001.75 1001.55 1001.19 1000.99 1000.83 1000.75 1000.83 1000.55 1000.35 1000.31 1000.35 1000.27 1000.11 1000.07 1000.03 999.87 999.79 1000.19 1000.67 1000.95 1001.15 1001.15 1001.19
1015.03 1015.95 1015.79 1015.63 1015.35 1014.47 1013.47 1013.03 1012.91 1012.63 1012.31 1012.39 1012.35 1012.03 1012.07 1011.91 1011.83 1011.67 1011.51 1011.15 1010.91 1010.79 1010.43 1010.15 1009.83 1009.43 1008.51 1007.87 1007.63 1007.39 1007.11 1006.91 1006.51 1005.95 1005.39 1004.87 1004.55 1004.03 1003.35 1002.71 1002.31 1001.91 1001.67 1001.51 1001.31 1001.19 1001.11 1000.83 1000.71 1000.63 1000.55 1000.47 1000.39 1000.23 1000.27 1000.27 1000.07 1000.39 1000.79 1001.11 1001.43 1001.51 1001.31
1016.39 1015.95 1015.75 1015.71 1015.79 1015.67 1014.71 1013.47 1012.79 1012.51 1012.23 1012.27 1012.39 1012.27 1012.19 1011.91 1011.67 1011.47 1011.43 1011.15 1010.79 1010.63 1010.27 1009.83 1009.67 1009.23 1008.75 1008.03 1007.59 1007.31 1007.11 1006.95 1006.67 1006.31 1005.83 1005.39 1004.95 1004.55 1004.03 1003.47 1002.99 1002.79 1002.47 1002.15 1001.83 1001.75 1001.55 1001.23 1000.99 1000.87 1000.79 1000.75 1000.67 1000.51 1000.55 1000.67 1000.55 1000.59 1000.83 1001.19 1001.27 1001.23 1001.35
1016.19 1015.79 1015.71 1015.43 1015.47 1015.27 1014.15 1013.47 1012.95 1012.63 1012.35 1012.31 1012.19 1012.03 1011.95 1011.79 1011.55 1011.23 1011.19 1011.15 1011.07 1010.55 1010.15 1009.87 1009.51 1009.15 1008.75 1008.19 1007.75 1007.47 1007.15 1006.99 1006.79 1006.39 1006.11 1005.79 1005.39 1004.91 1004.43 1004.11 1003.79 1003.43 1003.19 1002.99 1002.79 1002.63 1002.15 1001.79 1001.59 1001.35 1001.27 1001.19 1001.35 1000.99 1000.75 1000.79 1000.91 1000.91 1000.95 1001.11 1001.19 1001.07 1001.07
1016.75 1015.87 1015.55 1015.27 1014.95 1014.47 1013.83 1013.47 1013.11 1012.67 1012.31 1012.19 1012.19 1011.87 1011.67 1011.39 1011.03 1010.71 1010.71 1010.63 1010.43 1010.31 1010.11 1009.83 1009.31 1008.95 1008.59 1008.19 1007.91 1007.67 1007.43 1007.07 1006.83 1006.59 1006.35 1005.91 1005.27 1004.83 1004.59 1004.23 1004.23 1004.15 1003.83 1003.51 1003.23 1002.83 1002.51 1002.27 1002.03 1001.83 1001.83 1001.71 1001.43 1001.19 1000.95 1000.95 1000.99 1001.19 1001.19 1000.91 1000.79 1000.91 1001.19
Wind_Speed
3 1 6 4 9 12 11 13 17 16 9 10 11 6 4 4 8 14 5 9 12 7 14 11 6 8 13 16 18 19 19 16 13 13 14 16 17 18 18 19 19 21 19 19 19 20 19 20 21 22 22 20 20 18 18 19 19 18 19 19 18 16 15
7 4 5 6 9 7 6 14 15 9 7 11 10 11 7 10 12 6 8 15 11 10 11 11 11 9 13 15 16 18 20 16 15 14 15 16 18 19 21 21 21 22 22 23 22 21 23 23 25 24 21 20 18 18 20 20 19 20 19 19 19 17 17
4 6 4 9 11 12 11 10 10 12 11 15 13 8 15 13 14 9 7 8 12 12 11 3 14 16 14 13 13 16 17 14 16 16 17 18 19 18 17 19 17 18 19 20 21 22 24 24 21 21 20 20 19 19 20 22 23 23 22 18 18 15 16
4 4 5 14 12 13 15 9 11 13 9 13 12 14 7 4 10 6 9 10 12 10 10 10 9 14 17 15 12 14 15 14 14 14 16 16 16 16 17 18 18 19 21 23 24 24 24 23 22 21 22 21 23 23 21 21 20 19 19 20 18 17 18
5 7 8 13 12 12 15 12 11 12 11 2 10 8 13 11 9 10 6 8 9 9 6 10 13 14 16 16 12 11 11 13 16 16 15 15 17 17 17 18 19 21 22 23 23 23 22 21 19 18 20 23 22 20 21 22 22 22 22 21 19 17 17
8 4 5 4 8 6 4 4 11 14 14 10 15 14 11 14 11 7 7 12 5 2 4 11 14 13 14 16 16 12 13 14 13 13 16 15 15 17 18 19 20 20 21 22 22 21 18 18 20 23 22 21 22 23 22 22 21 20 21 20 19 17 17
9 10 8 7 5 5 5 5 6 6 9 13 11 11 11 13 14 10 9 8 11 5 2 5 9 11 14 15 15 14 11 12 13 14 16 17 17 18 19 20 20 19 20 21 21 21 23 23 23 24 22 22 23 24 22 21 22 22 22 21 19 16 16
14 17 16 6 4 6 5 5 6 7 6 5 7 8 5 10 11 11 11 13 9 5 7 9 8 10 9 7 7 11 14 11 11 13 14 16 14 16 17 17 17 17 17 17 16 18 20 19 19 21 21 21 21 21 22 21 23 23 22 19 18 18 17
6 10 5 4 3 3 1 2 1 2 5 7 7 7 3 9 13 15 10 15 7 7 3 6 14 8 8 11 9 8 9 5 3 5 8 11 13 14 17 17 18 16 16 17 16 17 16 16 18 20 20 20 21 22 21 22 22 22 20 19 18 18 19
11 13 13 9 7 3 2 2 2 1 4 7 4 10 7 8 9 15 13 10 7 4 3 6 11 9 6 8 6 3 6 8 7 4 3 5 7 9 14 15 15 16 16 15 15 15 15 18 19 18 18 20 21 21 22 21 20 20 20 18 19 18 19
8 3 5 2 6 5 3 1 5 5 1 1 2 3 3 11 5 11 10 7 6 6 9 9 8 5 7 5 3 5 4 3 3 5 5 8 9 10 13 13 14 12 11 13 16 16 19 22 21 19 20 20 20 19 21 21 20 20 19 18 18 18 19
16 15 12 12 10 11 11 10 8 3 4 2 3 6 7 8 2 14 4 5 11 5 1 4 7 9 7 4 6 7 6 6 7 7 5 5 8 11 10 10 10 12 14 14 15 17 20 20 20 19 20 20 21 20 21 20 19 18 16 18 18 18 18
14 15 14 10 10 11 11 11 12 12 7 6 6 9 10 9 7 6 2 3 5 1 3 8 8 9 9 12 11 9 9 9 8 8 9 9 8 10 12 13 14 15 16 16 16 18 19 21 21 21 19 19 17 16 17 17 18 19 18 18 18 18 18
15 17 14 9 13 14 14 14 13 12 9 8 9 10 10 12 9 6 13 8 4 3 7 7 8 8 9 8 8 7 8 9 10 11 11 11 11 11 14 16 17 16 17 17 17 17 17 20 21 21 18 18 19 19 20 20 19 19 17 18 18 18 18
12 14 12 11 14 14 14 14 12 9 6 5 3 2 3 5 8 11 14 12 5 2 6 6 7 7 6 7 8 9 9 10 11 11 12 12 13 14 12 13 17 17 18 18 17 17 18 20 21 20 19 19 19 21 20 20 19 19 18 17 18 19 18
10 6 7 9 7 9 12 12 8 6 3 1 5 6 5 2 3 4 6 8 4 4 10 7 5 5 6 7 9 9 9 11 12 12 12 12 14 16 16 15 16 17 18 16 18 20 22 22 21 19 16 18 18 20 20 20 19 18 18 18 19 17 17
10 6 2 4 8 9 10 13 11 7 9 6 7 8 11 10 6 5 5 3 8 9 9 7 3 6 6 7 8 9 10 11 12 13 14 14 14 15 15 15 14 17 19 20 21 22 22 22 22 22 20 19 19 20 20 20 17 18 19 19 18 16 16
5 2 5 6 5 10 8 6 8 6 11 10 11 8 8 10 9 3 5 7 10 10 10 8 7 5 4 6 7 8 10 12 12 14 14 15 15 15 15 15 16 17 16 16 19 22 22 24 25 22 22 21 19 18 17 17 19 17 17 17 17 16 15
5 5 7 6 10 9 7 4 3 6 11 11 14 12 12 13 15 16 14 15 15 14 11 10 10 8 5 2 8 10 12 12 12 14 15 15 15 15 14 14 16 15 15 15 16 17 17 18 16 16 16 15 14 16 17 18 17 15 16 16 14 15 15
6 6 3 5 6 7 8 9 10 6 6 8 12 10 13 15 13 12 11 14 14 14 14 13 9 8 5 2 7 11 14 16 15 14 14 15 15 14 13 12 12 12 17 16 17 18 17 18 18 18 18 18 18 18 18 18 17 15 15 15 15 15 14
5 6 5 8 6 3 5 2 6 7 4 4 5 6 8 12 14 14 13 14 16 16 14 14 12 8 5 5 5 13 17 19 19 17 15 15 15 13 12 11 10 8 10 11 13 12 15 18 18 18 18 18 18 17 18 17 17 17 16 15 16 16 17
9 7 6 3 3 5 4 5 7 6 6 4 2 5 6 10 14 14 14 15 16 18 16 18 18 10 2 4 8 14 21 21 21 20 15 15 14 12 9 5 8 10 11 12 13 15 15 16 16 16 17 18 18 17 18 17 17 17 17 18 17 16 17
3 6 5 3 4 1 4 11 11 9 6 6 5 4 5 8 13 13 14 15 17 16 16 17 16 7 3 6 9 14 22 23 21 18 14 15 14 12 9 4 10 13 13 15 17 16 17 18 16 17 18 19 17 17 17 17 18 18 18 17 17 17 17
8 7 6 5 1 2 8 14 13 11 8 9 7 5 3 10 12 12 14 15 16 16 15 13 12 13 7 10 13 19 22 21 18 13 14 15 16 14 12 8 2 10 13 15 17 18 19 18 17 18 18 17 17 16 16 17 18 18 18 17 17 16 16
9 10 6 4 2 2 12 15 16 12 8 8 10 5 4 9 11 10 11 13 14 14 14 12 10 9 7 9 15 19 21 19 16 14 14 13 14 14 12 11 8 6 12 16 18 21 16 15 17 18 15 16 16 14 15 16 18 19 17 15 15 15 15
8 7 6 4 2 3 12 16 14 12 5 6 7 2 2 6 10 9 9 11 12 14 13 11 9 9 11 12 13 16 17 15 13 15 17 17 17 15 12 13 11 4 3 6 13 15 13 16 17 16 16 15 14 14 16 18 19 17 15 14 14 13 13
6 5 4 4 4 3 14 19 7 11 3 4 5 4 4 5 7 9 11 9 11 12 13 13 12 12 13 14 15 16 14 14 16 16 16 16 15 16 15 13 11 8 5 5 6 10 14 17 16 16 19 15 15 15 16 17 15 13 13 13 13 13 13
2 1 1 2 5 9 10 11 4 6 9 6 6 6 7 7 7 9 10 10 10 12 12 14 15 13 14 15 15 17 17 19 18 18 17 17 17 16 15 14 11 7 6 6 7 6 8 11 12 14 16 14 14 15 15 10 11 11 12 12 12 13 13
4 3 4 5 7 9 8 4 3 5 5 4 6 7 6 8 7 9 9 12 13 12 13 14 13 13 13 14 15 15 15 15 15 16 16 14 15 15 15 14 13 10 8 8 8 8 5 5 6 8 10 12 13 12 7 7 9 11 12 12 12 12 13
7 4 7 6 8 11 7 3 5 3 4 6 9 9 9 9 7 7 7 12 13 14 13 12 12 12 15 16 15 15 15 15 16 17 17 17 17 17 16 15 16 11 11 11 11 11 10 8 6 5 6 9 10 7 6 7 8 9 10 11 11 12 11
5 3 10 12 13 11 6 5 7 6 7 7 7 7 7 9 10 10 10 9 12 12 14 12 12 15 15 15 13 13 13 14 15 16 16 16 15 14 15 15 14 12 11 11 13 13 12 9 8 7 8 7 8 7 6 6 6 8 8 9 9 9 9
7 5 8 12 13 9 4 7 8 10 11 12 8 5 6 9 10 10 10 10 11 10 12 13 13 15 15 14 13 12 11 11 12 14 14 16 17 16 13 14 15 14 12 11 11 12 12 9 8 8 8 7 5 5 6 7 7 7 7 8 9 10 11
6 3 5 14 13 5 4 11 10 10 11 12 14 11 10 10 11 11 10 9 10 11 12 13 13 15 15 13 12 12 11 11 11 13 13 13 14 14 16 15 14 14 14 13 11 12 11 8 8 7 7 6 5 5 3 4 7 8 6 6 4 6 6
8 9 10 13 9 7 13 14 15 16 14 13 13 12 11 12 12 11 11 12 10 9 11 11 11 13 14 15 13 13 10 10 12 13 15 14 15 15 14 11 13 15 15 14 12 11 9 8 7 7 8 7 7 5 4 2 3 7 6 6 5 4 4
8 11 12 9 7 8 10 14 16 15 14 13 14 13 12 13 13 13 12 12 13 12 11 10 11 12 13 16 15 14 11 11 11 12 14 14 14 13 13 14 15 14 14 13 12 12 10 8 8 8 8 7 7 6 5 4 2 5 4 4 5 5 4
7 11 12 11 10 10 12 14 15 14 12 13 13 12 10 11 13 14 11 10 12 14 14 12 10 12 12 13 14 14 14 12 13 13 14 13 11 11 10 10 11 13 14 13 12 11 9 8 7 7 7 7 6 5 6 5 3 2 3 4 4 5 4
10 13 12 12 12 13 10 11 13 13 12 12 12 13 13 13 13 14 12 10 10 12 12 13 12 10 11 12 12 13 13 14 13 15 15 14 14 13 13 14 13 12 12 11 9 9 8 7 7 7 6 6 7 7 6 5 4 2 1 1 5 5 5
Wind_Direction
180 138 350 309 207 215 189 192 209 215 203 207 225 249 239 274 237 248 174 239 243 307 281 256 223 220 226 221 217 215 218 208 190 196 201 202 204 204 200 200 198 195 191 187 190 192 191 190 191 193 191 187 185 183 182 185 187 186 188 190 191 191 191
121 3 317 264 260 276 146 206 210 186 196 219 219 235 197 218 236 219 171 230 240 212 268 210 195 213 224 216 217 219 220 202 183 202 199 201 204 203 200 197 195 189 188 190 192 194 192 192 194 191 188 183 180 182 184 184 185 188 190 190 192 191 191
288 336 258 247 239 234 240 232 169 184 183 204 208 230 227 218 227 238 205 229 246 228 225 136 200 205 223 225 215 214 218 205 205 205 203 201 202 202 198 197 193 188 190 192 192 195 196 197 192 191 187 184 186 187 189 189 190 191 189 191 193 193 191
338 291 189 222 208 210 233 229 188 205 222 207 201 208 250 260 250 232 233 207 244 225 238 233 228 206 217 221 215 218 217 201 203 207 206 199 197 199 199 197 195 192 193 193 193 194 195 193 189 188 185 188 191 190 188 191 192 190 189 191 191 191 192
289 222 189 216 216 210 200 211 225 201 215 196 226 204 217 215 234 236 238 230 236 236 198 231 234 219 217 218 212 212 214 205 205 204 200 196 196 198 199 197 195 194 195 196 196 194 194 192 188 184 187 191 192 191 192 191 190 190 191 192 191 191 189
241 241 82 91 74 46 9 277 224 210 205 193 201 227 208 226 230 229 220 245 256 217 161 212 221 221 214 212 214 211 213 211 205 201 201 195 194 198 198 198 196 195 194 195 195 192 187 185 184 186 190 190 189 192 192 191 191 191 191 191 193 190 191
265 279 291 303 315 279 259 239 264 295 254 216 218 230 202 213 228 242 246 279 253 230 263 226 247 236 216 210 208 218 219 211 201 198 199 198 194 196 198 197 197 195 192 191 188 182 180 183 184 185 186 189 191 192 190 190 192 193 193 193 190 186 187
273 265 268 263 228 197 201 221 253 265 262 296 274 260 234 211 212 212 224 239 255 220 196 274 246 243 281 304 267 227 214 205 200 198 199 197 194 198 201 201 199 197 192 184 178 177 179 180 180 182 187 190 190 189 191 190 193 193 192 191 189 185 186
232 239 185 137 93 158 137 114 172 302 311 306 299 292 320 240 216 216 216 239 236 236 137 194 268 256 247 252 246 261 281 299 269 221 208 204 197 191 195 195 195 191 181 172 173 175 176 176 180 184 187 187 187 189 189 190 192 190 189 189 189 188 189
204 200 203 201 179 178 349 269 249 132 334 344 307 225 208 238 213 214 227 237 246 283 209 228 233 265 258 239 244 231 238 254 260 265 228 235 214 199 199 198 191 186 183 179 177 178 179 183 187 184 185 186 188 188 189 188 187 187 187 187 188 186 188
275 333 13 323 285 315 248 228 289 290 205 311 286 325 277 231 186 218 224 223 260 198 206 212 230 240 272 297 219 222 240 266 262 242 217 197 199 212 211 200 195 187 184 179 177 178 183 186 187 184 185 186 187 187 186 186 186 186 185 184 184 186 187
264 284 292 308 307 285 283 290 286 267 288 281 277 220 207 10 315 239 144 190 236 218 198 6 334 328 317 309 336 344 348 333 317 315 305 278 234 210 194 195 191 191 193 187 180 181 186 187 188 185 186 187 187 185 184 184 184 182 182 182 181 183 185
274 276 278 292 292 270 267 270 276 284 283 281 256 246 264 283 246 264 355 195 231 173 351 345 327 336 323 322 335 335 326 321 327 323 307 287 249 223 208 193 188 194 193 191 183 184 185 185 184 183 184 185 184 183 180 180 183 184 178 177 179 180 182
277 274 272 268 268 272 268 261 260 259 270 275 261 254 238 228 234 271 279 289 52 21 354 331 332 333 323 321 331 335 345 346 334 319 306 290 270 233 208 202 199 195 194 189 185 181 178 183 182 181 179 179 179 177 179 181 183 182 175 177 176 180 185
269 272 275 260 256 262 263 258 249 249 263 250 360 298 260 263 245 242 254 273 276 95 3 329 323 333 328 327 342 347 342 337 332 316 298 288 279 269 241 203 198 197 195 189 182 180 182 186 181 181 180 180 181 182 181 181 181 181 179 175 177 182 188
280 274 271 253 246 251 257 259 236 216 181 143 38 58 26 356 314 295 299 271 232 33 342 328 328 339 348 341 340 338 336 330 323 312 299 285 275 264 252 232 204 197 195 183 178 182 186 187 182 181 176 177 179 185 184 183 181 180 181 178 182 185 188
266 266 318 312 300 276 254 236 223 162 100 94 97 64 39 24 322 239 238 272 9 326 322 307 307 340 360 354 353 340 333 328 320 313 306 297 286 273 253 239 216 198 194 187 183 187 185 186 185 185 175 175 180 183 181 182 177 180 183 184 183 184 185
273 353 329 305 259 224 221 103 152 170 124 102 77 50 32 31 27 359 336 325 323 331 328 330 311 296 339 24 8 3 348 335 329 321 313 307 304 291 266 245 225 204 191 188 187 184 183 185 185 181 178 181 180 177 174 169 174 178 178 181 182 180 182
268 320 320 240 220 217 85 72 79 124 101 98 98 70 38 34 19 9 359 346 340 332 315 308 301 286 244 34 26 9 356 345 332 324 319 315 312 304 274 242 219 192 178 183 183 180 181 177 169 168 173 173 164 169 169 169 169 166 173 176 176 175 178
276 281 235 224 209 124 137 77 39 42 64 76 127 83 42 35 26 7 352 342 331 326 325 322 310 299 241 207 41 9 358 349 338 328 325 320 316 306 283 232 208 188 183 180 179 178 176 168 171 170 170 171 169 171 171 169 172 170 168 171 173 174 179
235 227 232 252 360 219 171 64 29 15 28 20 100 108 59 33 21 11 352 342 343 338 339 338 329 316 259 251 7 0 354 342 335 330 323 322 320 312 289 235 191 167 173 167 174 155 166 171 168 172 170 172 173 171 172 173 171 173 176 178 181 182 185
230 254 264 252 230 227 133 27 347 344 324 307 211 130 91 27 15 8 358 355 350 349 346 353 341 300 215 13 345 347 342 333 327 324 334 333 332 334 326 232 151 149 145 147 143 158 160 168 169 169 168 168 166 168 171 170 169 173 178 184 185 184 186
253 228 238 236 224 75 11 333 327 320 310 277 206 150 85 30 11 5 352 357 359 359 355 355 358 30 64 342 322 331 329 322 317 317 339 342 342 348 349 307 172 156 150 153 155 160 160 165 166 165 164 165 162 163 169 170 172 177 184 185 186 186 188
245 239 233 245 276 266 338 331 322 315 300 258 207 186 138 15 359 0 356 354 359 355 358 357 28 37 17 336 317 316 314 308 301 317 345 350 355 359 359 1 317 151 138 142 154 157 165 167 162 157 162 163 164 165 168 169 175 181 184 186 186 185 185
238 237 249 289 281 17 342 327 320 318 309 225 185 175 41 349 344 351 353 348 352 348 359 4 16 12 346 307 300 305 307 310 317 342 355 352 4 11 9 7 354 150 158 159 165 169 166 154 162 163 161 163 166 165 164 172 183 187 186 182 180 180 182
232 235 241 240 71 37 335 330 320 316 269 178 153 67 333 333 336 342 348 341 342 344 352 1 353 330 329 318 313 317 315 313 308 357 357 1 5 14 20 19 15 22 134 148 161 161 145 153 160 161 160 165 164 163 170 183 188 185 179 177 173 172 174
216 225 213 217 228 40 355 328 324 2 103 64 46 10 26 3 350 345 341 337 329 343 336 342 337 332 331 331 328 324 320 326 346 353 357 358 6 15 20 23 18 18 62 89 124 140 155 162 164 164 168 164 167 171 183 187 180 174 171 168 170 174 179
264 113 53 42 18 306 328 344 45 46 70 65 36 14 357 1 360 355 336 329 332 331 333 332 332 332 333 329 337 337 339 347 350 351 353 359 4 9 14 26 33 46 61 52 67 98 147 162 165 167 169 163 171 178 184 164 170 170 162 167 168 176 180
9 29 53 360 313 296 306 293 79 84 62 59 35 14 2 348 347 346 329 325 325 327 328 326 325 326 333 332 335 338 333 337 345 345 346 353 360 4 9 9 21 47 66 81 76 77 67 101 134 151 160 160 165 170 144 143 161 165 169 168 171 180 184
332 96 47 343 329 329 314 266 111 83 16 0 2 358 347 338 325 325 317 315 319 319 323 322 323 322 325 332 335 337 335 342 345 349 352 356 358 359 4 10 3 18 62 78 81 70 61 61 86 101 136 150 147 131 133 154 159 161 163 169 177 183 181
327 36 19 3 336 327 60 63 30 9 360 339 346 341 331 325 320 317 306 304 309 312 315 315 314 314 323 332 332 335 335 344 345 349 347 352 355 353 358 359 5 7 20 42 59 67 68 44 56 68 77 85 106 123 138 144 147 153 160 167 175 180 187
23 339 3 348 326 303 69 32 12 343 334 326 324 319 312 315 309 301 298 304 305 312 309 312 311 311 320 329 330 333 340 340 347 347 348 349 350 351 354 359 5 12 19 29 35 45 60 51 45 59 67 68 71 107 133 142 139 140 149 170 177 183 184
342 348 351 349 327 296 303 348 343 337 327 322 314 317 317 315 308 303 299 294 299 304 300 304 308 311 315 323 330 333 334 339 347 348 342 348 352 351 356 355 5 17 22 28 34 51 53 40 45 54 57 59 55 57 79 125 138 134 129 121 131 147 163
13 5 348 349 346 329 320 324 327 323 321 316 308 309 314 315 311 307 305 304 301 296 298 299 303 306 310 317 330 330 332 338 341 343 346 350 353 354 353 351 3 10 12 13 21 31 34 29 33 40 45 45 39 43 38 33 120 128 131 136 135 144 155
336 345 344 342 321 295 289 308 317 317 318 317 311 305 303 302 300 302 301 307 309 306 301 301 302 305 309 312 322 326 333 336 340 342 346 349 347 350 352 360 4 4 2 0 6 15 15 15 29 31 38 34 30 26 31 20 19 114 135 145 150 147 144
320 342 335 334 327 317 316 317 316 316 315 312 302 294 287 287 296 300 294 286 291 299 301 299 296 300 304 309 322 325 326 332 341 345 347 341 339 342 348 6 6 2 360 358 358 355 352 7 21 27 35 31 14 15 23 31 356 54 152 169 154 141 138
338 338 332 331 320 313 317 322 320 315 318 320 311 305 305 302 296 298 290 283 281 286 294 299 301 299 302 310 317 318 321 327 337 342 343 340 344 354 353 357 8 359 349 349 343 345 346 358 13 20 31 20 10 7 12 7 356 12 346 138 126 123 132